sat.trackr.live / text

‹ back to catalog

STARLINK-34889

NORAD 65761 · 2025-216AD

PAYLOAD ACTIVE UNKNOWN

§ Identity

Operator
Country
US
Launch date
2025-09-25
Launch site
AFETR
Launch vehicle
Mass (kg)
RCS (m²)

Purposes: comms

External: N2YO · Heavens-Above · Gunter

§ Orbital elements

Epoch: 2026-05-24T22:18:42.674976Z

Period
94.10 min
Inclination
53.1623°
Eccentricity
0.0001005
Mean motion
15.30209074 rev/d
Perigee alt
474.5 km
Apogee alt
475.9 km
Semi-major
6,853.3 km
B*
9.4086e-4
RAAN
338.9479°
Arg perigee
77.0006°
Mean anomaly
283.1107°
Rev number
3,826

§ Raw data

STARLINK-348891 65761U 25216AD  26144.92966059  .00027618  00000+0  94086-3 0  99972 65761  53.1623 338.9479 0001005  77.0006 283.1107 15.30209074 38268

JSON: /api/v1/satellites/65761 · /tle

For live sub-satellite position, see the globe view (requires WebGL).

§ Visibility from observer

Set your observer location to see the next 7 days of passes ≥ 10°. The values pass through the URL so the page stays shareable.

No JS? Fill the form by hand. The geolocation button needs JavaScript.